Accueil
METAR-TAF:

METAR-TAF

Aéroports :

Morrisville-Stowe State Airport

Morrisville, Vermont, États-Unis

latitude: 44-32-10N, longitude: 072-36-58W, altitude: 223 m

Observation

Le bulletin a été fait il y a 27 minutes, à 04:54 UTC
Vent calme
Température 12°C
Humidité 76%
Pression 1007 hPa
Visibilité: 14.5 km
Ciel couvert à une hauteur de 3300 ft
pluie faible

METAR: KMVL 210454Z AUTO 00000KT 9SM -RA OVC033 12/08 A2973 RMK AO2 RAB17 SLP068 P0000 T01170078 402560117

Heure: 01:21 (05:21 UTC)


TAF: absent

Observations et prévisions météorologiques de plus de 4000 aéroports (messages METAR et TAF).

Les stations disponibles sont représentées par des disques jaunes et rouges sur la carte.

Passer la souris dessus pour voir le nom de la station.

Cliquer dessus pour voir les observations et prévisions météorologiques.

Pour changer de carte: cliquez sur les boutons verts avec une croix noire pour zoomer, sur le bouton vert avec un tiret pour effectuer un zoom arrière, ou sur les flèches vertes pour les cartes adjacentes.


METAR-TAF: